アトラス彗星

C/2022 R2 ( ATLAS )

English version
Home page
Updated on March 4, 2025

---------------------------------------------------------------------

・ プロフィール

発見日 2022年9月14日
発見光度 17.6等
発見者 Asteroid Terrestrial-Impact Last Alert System (ATLAS) search program

・ 写真集

・ 軌道要素

Epoch 2024 Oct. 17.0 TT = JDT 2460600.5                                         
T 2022 Oct. 25.37696 TT                                 Pike                    
q   0.6310841            (2000.0)            P               Q                  
z  +0.0023499      Peri.   78.32635     -0.41371195     -0.58967269             
 +/-0.0000312      Node    60.41154     +0.11828072     -0.79025030             
e   0.9985170      Incl.   52.90653     +0.90269158     -0.16670507             
From 297 observations 2022 Sept. 6-Oct. 30, mean residual 0".7.                 

・ 星図

・ 光度変化

        m1 = 15.0 + 5 logΔ + 10.0 log r

---------------------------------------------------------------------

軌道要素はM.P.E.C. 2025-A174に掲載されたものです。
星図はステラナビゲータ Ver.10 (アストロアーツ) で作成したものです。
光度グラフはComet for Windowsで作成したものです。

---------------------------------------------------------------------

Copyright(C) Seiichi Yoshida (comet@aerith.net). All rights reserved.